Tracking 23762 objects as of 22-Oct-2021
HD Live streaming from Space Station
objects crossing your sky now

CZ-2C DEB

Track CZ-2C DEB now!
10-day predictions


NORAD ID: 37733
Int'l Code: 2011-030D
Perigee: 692.1 km
Apogee: 909.7 km
Inclination: 98.4 °
Period: 100.7 minutes
Semi major axis: 7171 km
RCS: 0.096 m2 (small)
Launch date: July 6, 2011
Source: People's Republic of China (PRC)
Launch site: Jiuquan Satellite Launch Center, China (JSC)

Note: This is SATELLITE DEBRIS
aabbcc
Your satellite tracking list
Your tracking list is empty




NASA's NSSDC Master Catalog

Two Line Element Set (TLE):
1 37733U 11030D   21294.51518524  .00000437  00000-0  16736-3 0  9997
2 37733  98.3789 257.0397 0151706 252.8908 221.5306 14.29404466535907
Source of the keplerian elements: AFSPC